Time,TemperatureF,DewpointF,PressureIn,WindDirection,WindDirectionDegrees,WindSpeedMPH,WindSpeedGustMPH,Humidity,HourlyPrecipIn,Conditions,Clouds,dailyrainin,SoftwareType,DateUTC
2013-04-09 00:02:00,64.0,55.0,29.86,SSE,148,4.0,8.0,73,0.00,,,0.02,,2013-04-09 05:02:00,
2013-04-09 00:12:00,64.0,56.0,29.87,SE,138,1.0,6.0,74,0.00,,,0.02,,2013-04-09 05:12:00,
2013-04-09 00:22:00,64.0,56.0,29.87,SE,138,1.0,6.0,74,0.00,,,0.02,,2013-04-09 05:22:00,
2013-04-09 00:32:00,64.0,56.0,29.87,SE,138,0.0,3.0,74,0.00,,,0.02,,2013-04-09 05:32:00,
2013-04-09 00:42:00,63.0,55.0,29.88,SE,138,0.0,3.0,74,0.00,,,0.02,,2013-04-09 05:42:00,
2013-04-09 00:52:00,63.0,55.0,29.88,SE,138,0.0,3.0,74,0.00,,,0.02,,2013-04-09 05:52:00,
2013-04-09 01:02:00,63.0,55.0,29.88,SE,138,0.0,0.0,75,0.00,,,0.02,,2013-04-09 06:02:00,
2013-04-09 01:12:00,61.0,54.0,29.87,SE,138,0.0,3.0,77,0.00,,,0.02,,2013-04-09 06:12:00,
2013-04-09 01:22:00,61.0,54.0,29.87,SE,138,0.0,3.0,77,0.00,,,0.02,,2013-04-09 06:22:00,
2013-04-09 01:32:00,61.0,54.0,29.88,SE,138,0.0,0.0,77,0.00,,,0.02,,2013-04-09 06:32:00,
2013-04-09 01:42:00,61.0,54.0,29.88,SE,138,0.0,0.0,77,0.00,,,0.02,,2013-04-09 06:42:00,
2013-04-09 01:52:00,60.0,54.0,29.87,SE,138,0.0,1.0,80,0.00,,,0.02,,2013-04-09 06:52:00,
2013-04-09 02:02:00,60.0,54.0,29.86,SE,138,0.0,1.0,81,0.00,,,0.02,,2013-04-09 07:02:00,
2013-04-09 02:12:00,60.0,54.0,29.86,SE,138,0.0,1.0,81,0.00,,,0.02,,2013-04-09 07:12:00,
2013-04-09 02:22:00,60.0,54.0,29.85,SE,138,1.0,3.0,82,0.00,,,0.02,,2013-04-09 07:22:00,
2013-04-09 02:32:00,60.0,54.0,29.85,SE,138,0.0,5.0,80,0.00,,,0.01,,2013-04-09 07:32:00,
2013-04-09 02:42:00,60.0,54.0,29.85,SE,138,0.0,5.0,80,0.00,,,0.01,,2013-04-09 07:42:00,
2013-04-09 02:52:00,59.0,53.0,29.85,SE,138,0.0,1.0,81,0.00,,,0.00,,2013-04-09 07:52:00,
2013-04-09 03:02:00,60.0,54.0,29.85,SE,138,0.0,1.0,82,0.00,,,0.00,,2013-04-09 08:02:00,
2013-04-09 03:12:00,60.0,54.0,29.85,SE,138,0.0,1.0,82,0.00,,,0.00,,2013-04-09 08:12:00,
2013-04-09 03:22:00,60.0,54.0,29.84,SE,138,3.0,5.0,80,0.00,,,0.00,,2013-04-09 08:22:00,
2013-04-09 03:32:00,60.0,53.0,29.84,SE,138,2.0,5.0,79,0.00,,,0.00,,2013-04-09 08:32:00,
2013-04-09 03:42:00,60.0,53.0,29.84,SE,138,2.0,5.0,79,0.00,,,0.00,,2013-04-09 08:42:00,
2013-04-09 03:52:00,59.0,53.0,29.84,SE,138,0.0,1.0,81,0.00,,,0.00,,2013-04-09 08:52:00,
2013-04-09 04:02:00,59.0,54.0,29.84,SE,138,0.0,0.0,82,0.00,,,0.00,,2013-04-09 09:02:00,
2013-04-09 04:12:00,59.0,54.0,29.84,SE,138,0.0,0.0,82,0.00,,,0.00,,2013-04-09 09:12:00,
2013-04-09 04:22:00,58.0,53.0,29.84,SE,138,0.0,0.0,83,0.00,,,0.00,,2013-04-09 09:22:00,
2013-04-09 04:33:00,58.0,53.0,29.84,SE,138,0.0,0.0,83,0.00,,,0.00,,2013-04-09 09:33:00,
2013-04-09 04:43:00,58.0,53.0,29.84,SE,138,0.0,0.0,83,0.00,,,0.00,,2013-04-09 09:43:00,
2013-04-09 04:53:00,59.0,54.0,29.84,SE,138,1.0,6.0,82,0.00,,,0.00,,2013-04-09 09:53:00,
2013-04-09 05:03:00,60.0,54.0,29.84,SE,138,0.0,3.0,81,0.00,,,0.00,,2013-04-09 10:03:00,
2013-04-09 05:12:00,60.0,54.0,29.84,SE,138,0.0,3.0,81,0.00,,,0.00,,2013-04-09 10:12:00,
2013-04-09 05:23:00,59.0,53.0,29.84,SE,138,0.0,1.0,81,0.00,,,0.00,,2013-04-09 10:23:00,
2013-04-09 05:33:00,59.0,54.0,29.84,SE,138,0.0,0.0,82,0.00,,,0.00,,2013-04-09 10:33:00,
2013-04-09 05:42:00,59.0,54.0,29.84,SE,138,0.0,0.0,82,0.00,,,0.00,,2013-04-09 10:42:00,
2013-04-09 05:53:00,58.0,53.0,29.84,SE,138,0.0,1.0,83,0.00,,,0.00,,2013-04-09 10:53:00,
2013-04-09 06:02:00,59.0,54.0,29.84,SE,138,0.0,0.0,83,0.00,,,0.00,,2013-04-09 11:02:00,
2013-04-09 06:12:00,59.0,54.0,29.84,SE,138,0.0,0.0,83,0.00,,,0.00,,2013-04-09 11:12:00,
2013-04-09 06:22:00,59.0,54.0,29.85,SE,138,0.0,3.0,82,0.00,,,0.00,,2013-04-09 11:22:00,
2013-04-09 06:32:00,60.0,54.0,29.85,SE,138,0.0,1.0,81,0.00,,,0.00,,2013-04-09 11:32:00,
2013-04-09 06:42:00,60.0,54.0,29.85,SE,138,0.0,1.0,81,0.00,,,0.00,,2013-04-09 11:42:00,
2013-04-09 06:52:00,60.0,54.0,29.85,SE,138,0.0,5.0,80,0.00,,,0.00,,2013-04-09 11:52:00,
2013-04-09 07:02:00,60.0,53.0,29.86,SE,138,0.0,1.0,79,0.00,,,0.00,,2013-04-09 12:02:00,
2013-04-09 07:12:00,60.0,53.0,29.86,SE,138,0.0,1.0,79,0.00,,,0.00,,2013-04-09 12:12:00,
2013-04-09 07:22:00,60.0,54.0,29.87,SE,138,0.0,1.0,80,0.00,,,0.00,,2013-04-09 12:22:00,
2013-04-09 07:32:00,60.0,54.0,29.87,SE,138,2.0,6.0,80,0.00,,,0.00,,2013-04-09 12:32:00,
2013-04-09 07:42:00,60.0,54.0,29.87,SE,138,2.0,6.0,80,0.00,,,0.00,,2013-04-09 12:42:00,
2013-04-09 07:53:00,61.0,54.0,29.87,SE,132,2.0,8.0,78,0.00,,,0.00,,2013-04-09 12:53:00,
2013-04-09 08:02:00,62.0,54.0,29.87,SSE,150,6.0,10.0,76,0.00,,,0.00,,2013-04-09 13:02:00,
2013-04-09 08:12:00,62.0,54.0,29.87,SSE,150,6.0,10.0,76,0.00,,,0.00,,2013-04-09 13:12:00,
2013-04-09 08:23:00,63.0,55.0,29.87,SSE,166,5.0,10.0,74,0.00,,,0.00,,2013-04-09 13:23:00,
2013-04-09 08:32:00,63.0,54.0,29.86,SSE,154,7.0,14.0,73,0.00,,,0.00,,2013-04-09 13:32:00,
2013-04-09 08:42:00,63.0,54.0,29.86,SSE,154,7.0,14.0,73,0.00,,,0.00,,2013-04-09 13:42:00,
2013-04-09 08:53:00,65.0,55.0,29.85,SSE,157,14.0,18.0,70,0.00,,,0.00,,2013-04-09 13:53:00,
2013-04-09 09:03:00,66.0,55.0,29.85,South,173,16.0,21.0,68,0.00,,,0.00,,2013-04-09 14:03:00,
2013-04-09 09:12:00,66.0,55.0,29.85,South,173,16.0,21.0,68,0.00,,,0.00,,2013-04-09 14:12:00,
2013-04-09 09:22:00,67.0,55.0,29.84,SSE,150,16.0,23.0,65,0.00,,,0.00,,2013-04-09 14:22:00,
2013-04-09 09:32:00,68.0,56.0,29.84,South,187,10.0,16.0,65,0.00,,,0.00,,2013-04-09 14:32:00,
2013-04-09 09:42:00,68.0,56.0,29.84,South,187,10.0,16.0,65,0.00,,,0.00,,2013-04-09 14:42:00,
2013-04-09 09:52:00,70.0,57.0,29.83,SW,220,8.0,25.0,63,0.00,,,0.00,,2013-04-09 14:52:00,
2013-04-09 10:02:00,70.0,56.0,29.83,South,174,14.0,24.0,62,0.00,,,0.00,,2013-04-09 15:02:00,
2013-04-09 10:12:00,70.0,56.0,29.83,South,174,14.0,24.0,62,0.00,,,0.00,,2013-04-09 15:12:00,
2013-04-09 10:22:00,71.0,57.0,29.83,SSE,154,10.0,25.0,61,0.00,,,0.00,,2013-04-09 15:22:00,
2013-04-09 10:33:00,73.0,58.0,29.83,South,169,16.0,21.0,59,0.00,,,0.00,,2013-04-09 15:33:00,
2013-04-09 10:43:00,73.0,58.0,29.83,South,169,16.0,21.0,59,0.00,,,0.00,,2013-04-09 15:43:00,
2013-04-09 10:53:00,72.0,58.0,29.83,SSW,210,10.0,18.0,61,0.00,,,0.00,,2013-04-09 15:53:00,
2013-04-09 11:03:00,72.0,58.0,29.82,SW,231,9.0,15.0,61,0.00,,,0.00,,2013-04-09 16:03:00,
2013-04-09 11:13:00,72.0,58.0,29.82,SW,231,9.0,15.0,61,0.00,,,0.00,,2013-04-09 16:13:00,
2013-04-09 11:23:00,73.0,59.0,29.82,South,176,13.0,25.0,61,0.00,,,0.00,,2013-04-09 16:23:00,
2013-04-09 11:33:00,74.0,59.0,29.81,SSE,161,9.0,24.0,60,0.00,,,0.00,,2013-04-09 16:33:00,
2013-04-09 11:42:00,74.0,59.0,29.81,SSE,161,9.0,24.0,60,0.00,,,0.00,,2013-04-09 16:42:00,
2013-04-09 11:53:00,75.0,60.0,29.80,South,185,10.0,21.0,59,0.00,,,0.00,,2013-04-09 16:53:00,
2013-04-09 12:02:00,75.0,59.0,29.80,South,175,16.0,29.0,58,0.00,,,0.00,,2013-04-09 17:02:00,
2013-04-09 12:12:00,75.0,59.0,29.80,South,175,16.0,29.0,58,0.00,,,0.00,,2013-04-09 17:12:00,
2013-04-09 12:23:00,76.0,59.0,29.79,SSE,156,14.0,24.0,56,0.00,,,0.00,,2013-04-09 17:23:00,
2013-04-09 12:32:00,76.0,59.0,29.79,South,180,13.0,25.0,56,0.00,,,0.00,,2013-04-09 17:32:00,
2013-04-09 12:42:00,76.0,59.0,29.79,South,180,13.0,25.0,56,0.00,,,0.00,,2013-04-09 17:42:00,
2013-04-09 12:54:00,77.0,59.0,29.78,SSE,164,16.0,35.0,54,0.00,,,0.00,,2013-04-09 17:54:00,
2013-04-09 13:02:00,77.0,60.0,29.78,SSW,201,13.0,25.0,55,0.00,,,0.00,,2013-04-09 18:02:00,
2013-04-09 13:12:00,77.0,60.0,29.78,SSW,201,13.0,25.0,55,0.00,,,0.00,,2013-04-09 18:12:00,
2013-04-09 13:22:00,77.0,59.0,29.79,SSW,199,16.0,31.0,53,0.00,,,0.00,,2013-04-09 18:22:00,
2013-04-09 13:32:00,77.0,59.0,29.78,South,181,10.0,35.0,53,0.00,,,0.00,,2013-04-09 18:32:00,
2013-04-09 13:43:00,77.0,59.0,29.78,South,181,10.0,35.0,53,0.00,,,0.00,,2013-04-09 18:43:00,
2013-04-09 13:53:00,77.0,57.0,29.79,SSW,199,16.0,31.0,51,0.00,,,0.00,,2013-04-09 18:53:00,
2013-04-09 14:02:00,77.0,57.0,29.79,SSW,199,16.0,31.0,51,0.00,,,0.00,,2013-04-09 19:02:00,
2013-04-09 14:12:00,77.0,57.0,29.79,SSW,199,16.0,31.0,51,0.00,,,0.00,,2013-04-09 19:12:00,
2013-04-09 14:22:00,77.0,57.0,29.79,SSW,199,16.0,31.0,51,0.00,,,0.00,,2013-04-09 19:22:00,
2013-04-09 14:32:00,77.0,57.0,29.78,SSW,194,8.0,25.0,50,0.00,,,0.00,,2013-04-09 19:32:00,
2013-04-09 14:42:00,77.0,57.0,29.78,SSW,194,8.0,25.0,50,0.00,,,0.00,,2013-04-09 19:42:00,
2013-04-09 14:53:00,77.0,57.0,29.79,SW,233,12.0,23.0,50,0.00,,,0.00,,2013-04-09 19:53:00,
2013-04-09 15:02:00,76.0,57.0,29.78,SSW,212,12.0,20.0,51,0.00,,,0.00,,2013-04-09 20:02:00,
2013-04-09 15:12:00,76.0,57.0,29.78,SSW,212,12.0,20.0,51,0.00,,,0.00,,2013-04-09 20:12:00,
2013-04-09 15:22:00,77.0,58.0,29.78,SSW,199,13.0,20.0,52,0.00,,,0.00,,2013-04-09 20:22:00,
2013-04-09 15:33:00,76.0,58.0,29.78,SSE,161,5.0,25.0,53,0.00,,,0.00,,2013-04-09 20:33:00,
2013-04-09 15:42:00,76.0,58.0,29.78,SSE,161,5.0,25.0,53,0.00,,,0.00,,2013-04-09 20:42:00,
2013-04-09 15:52:00,76.0,58.0,29.78,SSW,206,9.0,21.0,54,0.00,,,0.00,,2013-04-09 20:52:00,
2013-04-09 16:02:00,76.0,59.0,29.79,SSW,197,12.0,25.0,55,0.00,,,0.00,,2013-04-09 21:02:00,
2013-04-09 16:13:00,76.0,59.0,29.79,SSW,197,12.0,25.0,55,0.00,,,0.00,,2013-04-09 21:13:00,
2013-04-09 16:22:00,76.0,59.0,29.79,SSW,197,12.0,25.0,55,0.00,,,0.00,,2013-04-09 21:22:00,
2013-04-09 16:33:00,75.0,59.0,29.78,SSW,208,9.0,25.0,57,0.00,,,0.00,,2013-04-09 21:33:00,
2013-04-09 16:42:00,75.0,59.0,29.78,SSW,208,9.0,25.0,57,0.00,,,0.00,,2013-04-09 21:42:00,
2013-04-09 16:53:00,74.0,58.0,29.78,SSW,193,6.0,16.0,58,0.00,,,0.00,,2013-04-09 21:53:00,
2013-04-09 17:03:00,74.0,59.0,29.79,SW,218,7.0,9.0,59,0.00,,,0.00,,2013-04-09 22:03:00,
2013-04-09 17:12:00,74.0,59.0,29.79,West,261,6.0,18.0,59,0.00,,,0.00,,2013-04-09 22:12:00,
2013-04-09 17:23:00,74.0,59.0,29.79,West,261,6.0,18.0,59,0.00,,,0.00,,2013-04-09 22:23:00,
2013-04-09 17:33:00,74.0,59.0,29.79,South,174,7.0,18.0,60,0.00,,,0.00,,2013-04-09 22:33:00,
2013-04-09 17:42:00,74.0,59.0,29.79,South,174,7.0,18.0,60,0.00,,,0.00,,2013-04-09 22:42:00,
2013-04-09 17:53:00,74.0,60.0,29.79,SSW,203,7.0,10.0,61,0.00,,,0.00,,2013-04-09 22:53:00,
2013-04-09 18:03:00,74.0,60.0,29.80,WSW,257,9.0,10.0,61,0.00,,,0.00,,2013-04-09 23:03:00,
2013-04-09 18:12:00,74.0,60.0,29.79,SSW,194,2.0,8.0,61,0.00,,,0.00,,2013-04-09 23:12:00,
2013-04-09 18:22:00,74.0,60.0,29.79,SSW,194,2.0,8.0,61,0.00,,,0.00,,2013-04-09 23:22:00,
2013-04-09 18:32:00,73.0,59.0,29.79,SSE,167,2.0,8.0,62,0.00,,,0.00,,2013-04-09 23:32:00,
2013-04-09 18:42:00,73.0,59.0,29.79,SSE,167,2.0,8.0,62,0.00,,,0.00,,2013-04-09 23:42:00,
2013-04-09 18:53:00,73.0,59.0,29.79,SW,220,3.0,14.0,62,0.00,,,0.00,,2013-04-09 23:53:00,
2013-04-09 19:03:00,73.0,59.0,29.79,SW,220,3.0,14.0,62,0.00,,,0.00,,2013-04-10 00:03:00,
2013-04-09 19:12:00,73.0,59.0,29.79,SW,220,3.0,14.0,62,0.00,,,0.00,,2013-04-10 00:12:00,
2013-04-09 19:22:00,73.0,60.0,29.79,SW,234,0.0,8.0,63,0.00,,,0.00,,2013-04-10 00:22:00,
2013-04-09 19:32:00,73.0,60.0,29.79,SSW,211,0.0,6.0,64,0.00,,,0.00,,2013-04-10 00:32:00,
2013-04-09 19:42:00,73.0,60.0,29.79,SSW,211,0.0,6.0,64,0.00,,,0.00,,2013-04-10 00:42:00,
2013-04-09 19:52:00,72.0,60.0,29.80,WSW,258,0.0,5.0,65,0.00,,,0.00,,2013-04-10 00:52:00,
2013-04-09 20:02:00,72.0,60.0,29.80,West,259,0.0,3.0,65,0.00,,,0.00,,2013-04-10 01:02:00,
2013-04-09 20:12:00,72.0,60.0,29.80,West,260,0.0,3.0,66,0.00,,,0.00,,2013-04-10 01:12:00,
2013-04-09 20:23:00,72.0,60.0,29.80,West,260,0.0,3.0,66,0.00,,,0.00,,2013-04-10 01:23:00,
2013-04-09 20:32:00,72.0,60.0,29.81,West,260,0.0,0.0,67,0.00,,,0.00,,2013-04-10 01:32:00,
2013-04-09 20:42:00,72.0,60.0,29.81,West,260,0.0,0.0,67,0.00,,,0.00,,2013-04-10 01:42:00,
2013-04-09 20:53:00,71.0,60.0,29.81,West,260,0.0,0.0,68,0.00,,,0.00,,2013-04-10 01:53:00,
2013-04-09 21:02:00,70.0,59.0,29.81,West,260,0.0,0.0,69,0.00,,,0.00,,2013-04-10 02:02:00,
2013-04-09 21:12:00,70.0,59.0,29.81,West,260,0.0,0.0,69,0.00,,,0.00,,2013-04-10 02:12:00,
2013-04-09 21:22:00,70.0,61.0,29.80,West,260,0.0,0.0,72,0.00,,,0.00,,2013-04-10 02:22:00,
2013-04-09 21:32:00,69.0,60.0,29.80,West,260,0.0,0.0,72,0.00,,,0.00,,2013-04-10 02:32:00,
2013-04-09 21:42:00,69.0,60.0,29.80,West,260,0.0,0.0,72,0.00,,,0.00,,2013-04-10 02:42:00,
2013-04-09 21:52:00,69.0,60.0,29.80,West,260,0.0,0.0,72,0.00,,,0.00,,2013-04-10 02:52:00,
2013-04-09 22:02:00,69.0,60.0,29.80,West,260,1.0,3.0,72,0.00,,,0.00,,2013-04-10 03:02:00,
2013-04-09 22:12:00,69.0,60.0,29.80,West,260,1.0,3.0,72,0.00,,,0.00,,2013-04-10 03:12:00,
2013-04-09 22:22:00,70.0,60.0,29.80,ESE,116,1.0,5.0,71,0.00,,,0.00,,2013-04-10 03:22:00,
2013-04-09 22:33:00,70.0,60.0,29.80,ESE,116,1.0,3.0,71,0.00,,,0.00,,2013-04-10 03:33:00,
2013-04-09 22:43:00,70.0,60.0,29.80,ESE,116,1.0,3.0,71,0.00,,,0.00,,2013-04-10 03:43:00,
2013-04-09 22:53:00,70.0,60.0,29.80,ESE,116,1.0,3.0,71,0.00,,,0.00,,2013-04-10 03:53:00,
2013-04-09 23:03:00,70.0,60.0,29.80,ESE,116,1.0,5.0,70,0.00,,,0.00,,2013-04-10 04:03:00,
2013-04-09 23:13:00,70.0,60.0,29.80,ESE,116,1.0,5.0,70,0.00,,,0.00,,2013-04-10 04:13:00,
2013-04-09 23:23:00,70.0,59.0,29.80,SSE,161,3.0,6.0,69,0.00,,,0.00,,2013-04-10 04:23:00,
2013-04-09 23:33:00,71.0,60.0,29.80,South,174,2.0,9.0,69,0.00,,,0.00,,2013-04-10 04:33:00,
2013-04-09 23:42:00,71.0,60.0,29.80,South,174,2.0,9.0,69,0.00,,,0.00,,2013-04-10 04:42:00,
2013-04-09 23:53:00,71.0,60.0,29.80,South,175,7.0,9.0,69,0.00,,,0.00,,2013-04-10 04:53:00,